Location: Riedlingen
(48.1569°N, 9.4757°E)
Time: 19:14:41
(UTC+01:00)

ISS - Pass Details

Date: 15 November 2017
Orbit: 402 x 407 km, 51.6° (Epoch: 24 November)

Event Time Altitude Azimuth Distance (km) Brightness Sun altitude
Exits shadow 04:55:19 27° 108° (ESE) 808 -1.7 -25.5°
Drops below altitude 10° 04:56:57 10° 110° (ESE) 1,453 -0.1 -25.2°
Sets 04:59:01 0° 111° (ESE) 2,310 1.1 -24.9°
